Dewpoint
-10 -11 -11 -4 -9 -7 -10 -12 -9 -11 -9 -11 -12 -11 -11 -11 -10 -1 1 5 5 2 5 6 7 8 8 8 7 6 6 6 6 7 7 8 9 10 11 12 11 11 9 9 9 11 11 10 10
-8 -11 -5 -5 -11 -14 -16 -10 -9 -11 -13 -13 -12 -12 -10 -9 -3 -1 2 6 6 1 4 5 7 7 8 8 7 6 6 6 7 7 8 8 9 9 10 9 9 9 8 9 9 12 12 11 10
-8 -12 -5 -3 -9 -13 -16 -16 -12 -11 -12 -11 -10 -9 -9 -8 -7 1 5 7 6 3 4 6 7 7 8 8 7 7 6 7 7 8 8 9 9 8 8 7 7 7 9 9 11 11 11 9 9
-12 -6 -5 -5 -6 -8 -14 -13 -11 -9 -8 -9 -9 -7 -7 -7 -3 2 1 8 3 3 4 6 7 7 7 7 7 8 7 8 8 8 8 9 9 8 7 7 7 7 9 10 10 11 10 8 7
-10 -4 -5 -3 -3 -5 -5 -7 -8 -6 -6 -7 -7 -6 -6 -5 -6 -0 7 7 4 5 4 6 7 7 6 6 8 8 8 8 9 9 9 9 10 9 8 7 7 7 8 9 10 10 9 8 6
-9 -4 -5 -5 -4 -5 -6 -6 -6 -7 -7 -6 -6 -6 -5 -6 -6 -3 6 9 6 6 6 7 7 7 5 5 7 8 7 7 8 9 9 9 10 10 9 8 7 7 8 9 10 9 8 7 5
-8 -6 -4 -4 -3 -5 -5 -6 -6 -6 -6 -4 -5 -4 -5 -4 -4 -5 2 9 10 7 9 7 6 6 5 5 6 7 6 6 7 9 9 10 10 10 10 10 8 8 8 9 9 8 8 7 5
-9 -7 -3 -4 -4 -6 -7 -5 -5 -4 -3 -4 -3 -4 -2 -3 -5 -5 -1 9 11 9 10 9 5 3 4 7 8 7 5 5 7 8 10 10 10 11 11 11 10 9 8 9 8 8 8 7 5
-2 -3 -2 -5 -4 -6 -3 -1 -2 -2 -2 -3 -3 -3 -2 -5 -7 -7 1 10 12 10 10 10 7 4 4 5 6 7 6 6 6 8 10 10 10 11 11 11 11 10 10 9 8 8 8 7 6
-0 1 -2 -4 -5 -4 -2 -1 -2 -2 -2 -2 -3 -4 -7 -10 -10 -8 -3 4 12 10 10 9 7 5 6 7 5 4 4 7 7 7 9 10 10 10 11 11 11 11 11 10 9 8 8 8 7
-3 -7 -2 -1 -2 -1 -2 -3 -4 -4 -5 -5 -5 -9 -9 -10 -10 -10 -9 -2 10 9 8 7 5 4 5 5 5 3 2 3 4 7 8 9 10 10 10 11 12 12 12 11 10 10 9 8 7
-3 -3 -3 -3 -5 -6 -6 -6 -7 -7 -7 -9 -8 -8 -8 -9 -10 -10 -9 -7 -2 8 8 6 6 5 3 4 4 2 0 0 1 3 5 7 8 9 9 11 12 12 12 11 11 10 9 9 8
-5 -6 -8 -9 -10 -9 -9 -8 -8 -8 -8 -8 -8 -8 -9 -9 -9 -10 -9 -7 -6 -6 -4 7 5 4 4 3 3 2 0 -1 -1 2 3 3 5 7 8 9 11 12 12 12 11 11 10 10 10
-7 -10 -12 -12 -11 -11 -9 -8 -7 -7 -8 -9 -10 -11 -12 -13 -14 -12 -9 -9 -9 -9 -8 -7 -5 -3 6 2 2 2 0 -1 -0 1 1 2 3 4 6 9 10 12 12 12 12 11 11 11 10
-12 -11 -12 -13 -9 -8 -8 -10 -6 -8 -10 -11 -12 -11 -11 -11 -13 -15 -13 -10 -10 -9 -10 -9 -11 -11 -2 10 6 2 1 1 -0 -1 -0 1 2 3 5 7 9 10 12 12 12 12 12 11 11
-7 -10 -10 -10 -9 -11 -9 -14 -7 -10 -11 -11 -10 -10 -11 -13 -13 -13 -15 -14 -12 -12 -10 -9 -10 -10 -10 -6 6 10 6 4 3 2 1 1 1 1 2 5 8 10 10 12 13 12 12 12 12
-7 -10 -10 -10 -9 -9 -9 -9 -10 -10 -10 -10 -10 -10 -10 -11 -13 -14 -13 -12 -13 -12 -11 -10 -10 -9 -11 -10 -7 3 7 10 9 7 5 3 2 1 0 1 6 9 10 11 12 13 13 12 12
-11 -9 -8 -8 -7 -8 -7 -7 -9 -10 -10 -11 -11 -10 -10 -11 -11 -15 -12 -11 -12 -13 -12 -13 -12 -11 -11 -10 -9 -6 3 9 10 8 8 8 5 2 2 2 3 7 9 11 11 13 13 13 12
-6 -6 -6 -6 -8 -6 -6 -9 -12 -13 -13 -12 -11 -12 -11 -10 -10 -10 -10 -11 -12 -11 -11 -12 -13 -13 -11 -9 -9 -7 -6 1 8 9 6 8 10 6 3 3 2 6 8 8 10 11 12 13 11
-8 -7 -7 -7 -8 -10 -13 -13 -15 -15 -12 -14 -14 -11 -11 -9 -4 -2 -5 -6 -6 -6 -8 -10 -12 -13 -13 -11 -9 -8 -8 -8 1 7 7 6 7 10 5 4 3 3 7 8 9 10 12 13 11
-8 -7 -9 -11 -12 -14 -14 -13 -15 -17 -15 -12 -4 3 4 4 4 4 4 3 2 2 -1 -6 -9 -10 -13 -13 -6 2 4 7 5 10 10 6 4 8 9 5 6 4 5 7 7 8 10 11 11
-12 -12 -13 -12 -12 -12 -11 -10 -13 -14 -10 2 3 2 2 2 1 1 2 2 3 3 2 0 -5 -8 -11 -13 -11 5 4 10 11 -2 0 7 4 6 9 8 8 6 6 7 7 8 9 11 11
-11 -13 -10 -9 -8 -6 -9 -7 -13 -14 -3 2 0 -0 -0 -1 -1 -1 -0 1 3 4 5 5 0 -0 -6 -10 -8 -4 5 4 9 2 -1 5 4 4 5 10 9 9 7 7 7 9 10 11 11
-8 -6 -6 -5 -5 -6 -10 -10 -10 2 3 2 -1 -1 -1 -2 -2 -2 -1 -0 1 3 4 5 6 6 2 -5 -5 -4 -0 8 11 8 3 6 8 4 6 8 10 10 9 9 9 10 11 11 11
-8 -7 -4 -3 -1 -6 -7 -7 -6 3 2 0 -0 -1 -2 -3 -3 -4 -3 -2 -0 1 2 4 5 7 7 3 -3 -1 7 10 11 9 5 4 10 7 2 5 9 9 9 9 10 11 11 11 11
-7 -7 -6 -3 -4 -5 -9 -8 -0 -0 -2 -2 -2 -3 -3 -3 -4 -4 -4 -3 -2 -1 1 1 3 6 8 10 4 10 9 12 12 12 12 10 10 6 6 4 8 7 7 7 10 11 10 11 10
-5 -4 -8 -5 -7 -4 -7 -2 -0 -2 -2 -3 -3 -4 -4 -4 -4 -5 -5 -4 -3 -2 -0 -0 3 6 7 9 10 11 11 12 13 12 12 11 9 8 7 6 6 6 6 8 11 11 10 11 10
-7 -6 -0 -2 2 1 -2 -3 2 -0 -1 -3 -3 -4 -4 -4 -5 -6 -6 -6 -4 -3 -2 -0 2 4 7 9 11 11 11 11 12 12 12 12 11 10 10 11 8 7 7 11 12 10 10 10 10
-3 -3 -3 -3 -3 2 2 3 1 -1 -2 -3 -4 -5 -5 -5 -6 -6 -7 -6 -6 -4 -3 -2 2 5 7 9 11 12 12 12 12 12 12 12 12 11 11 11 9 9 10 13 12 11 10 11 11
-5 -4 0 1 1 2 3 2 -2 -3 -4 -4 -6 -5 -6 -6 -7 -7 -7 -7 -6 -5 -4 -3 4 5 6 7 10 11 12 11 12 12 12 13 12 12 12 10 10 9 10 12 11 10 10 10 10
Wind_Speed
6 4 5 4 2 1 2 5 0 5 4 4 3 5 10 13 8 7 19 20 15 32 33 31 28 27 26 24 22 19 19 19 19 21 22 21 20 19 18 17 15 14 13 13 13 13 13 13 12
5 7 7 3 3 4 5 3 10 8 4 8 6 4 4 4 4 16 24 17 17 31 33 31 29 27 26 24 22 20 19 19 18 18 20 21 20 19 18 16 15 14 13 14 14 13 13 12 11
7 10 5 2 2 7 4 4 5 4 6 5 4 7 5 8 19 14 20 14 17 32 33 31 28 27 26 24 22 20 19 18 18 17 18 19 19 18 17 16 15 14 15 14 15 14 13 12 11
8 6 4 3 7 5 6 2 1 8 1 3 5 4 10 10 23 21 23 12 24 31 32 30 28 27 26 25 22 21 19 18 18 18 18 18 18 18 17 16 15 15 15 14 14 13 12 11 11
10 3 2 3 4 6 6 5 6 5 9 7 5 4 11 7 26 26 13 13 25 28 31 30 28 27 26 24 23 22 20 19 18 18 18 18 18 17 17 16 16 15 15 14 14 13 12 12 11
4 2 2 5 7 6 7 6 7 7 6 6 2 7 7 13 26 31 13 14 24 29 32 30 29 28 27 25 24 22 20 19 19 19 19 18 18 18 17 16 16 15 15 14 14 13 13 13 12
4 3 3 3 2 5 4 2 5 4 3 5 8 8 8 19 29 32 23 13 22 29 32 31 31 30 27 24 23 22 21 20 20 20 20 19 18 18 18 17 16 16 15 15 14 14 14 14 13
4 2 5 4 6 8 4 2 5 4 6 8 8 2 8 29 29 30 29 13 20 29 31 31 31 30 28 26 24 23 21 20 20 20 20 19 19 19 18 18 17 16 15 15 14 15 15 14 13
5 2 4 7 7 4 1 3 5 6 9 9 7 11 21 24 24 27 26 18 18 28 31 32 32 31 29 27 25 24 23 22 21 21 21 21 21 21 20 20 19 17 16 16 15 17 16 15 14
5 3 9 5 5 3 4 5 10 8 20 22 25 23 24 23 24 24 22 22 16 25 29 31 31 31 29 28 27 26 25 25 24 24 24 24 23 23 23 21 20 19 18 17 17 17 17 17 17
6 5 6 5 10 7 12 17 15 16 15 16 23 30 25 22 22 20 20 21 16 20 26 30 32 32 31 31 30 29 27 27 26 25 25 26 25 24 24 24 23 22 21 21 20 20 21 21 19
4 8 6 3 5 4 6 8 12 17 22 22 21 26 23 24 23 21 19 18 13 16 19 25 28 31 32 32 31 31 29 28 27 27 26 27 27 27 27 27 27 26 25 24 24 23 22 21 21
4 4 5 6 16 11 14 16 15 15 24 23 18 15 18 18 19 19 20 18 15 14 12 18 21 30 32 31 32 33 31 29 28 28 28 27 28 28 29 29 29 28 28 27 26 24 24 23 22
3 5 11 10 14 15 12 12 5 9 6 7 12 19 21 22 21 22 19 20 22 22 21 17 19 18 28 35 35 35 33 32 30 29 30 29 29 29 30 30 30 30 29 28 27 26 24 24 23
3 6 8 10 0 2 7 7 6 3 12 21 23 25 25 25 23 23 23 22 22 24 24 25 22 22 24 29 33 37 35 35 33 32 33 33 31 31 31 32 32 31 31 30 28 27 25 25 25
3 1 4 1 8 3 3 9 8 5 19 21 22 22 28 29 27 25 24 24 24 25 26 24 28 28 28 30 32 36 37 37 36 34 34 35 34 33 34 34 34 33 31 31 31 29 28 27 27
1 4 3 5 5 5 5 11 12 17 16 17 23 25 24 28 29 29 25 25 23 24 26 28 26 28 31 32 35 37 38 39 37 34 35 37 38 36 35 34 35 35 33 32 32 32 30 29 29
4 5 3 6 4 14 17 24 11 11 17 22 22 21 25 33 31 33 29 27 27 27 26 26 29 32 32 37 37 39 42 42 41 37 37 38 39 40 37 36 35 36 35 34 33 33 30 31 30
3 5 10 9 12 10 11 27 22 15 18 19 20 25 28 30 31 30 31 31 35 32 29 27 27 29 32 36 41 42 44 44 45 44 38 39 38 38 39 38 37 38 37 36 35 32 31 33 29
5 7 8 8 4 9 16 30 27 13 8 18 23 24 31 35 29 24 28 30 30 28 28 29 30 30 31 35 38 40 43 46 46 49 46 42 40 37 39 42 41 40 38 38 35 33 34 34 32
4 5 6 11 8 11 16 22 6 10 13 11 15 17 19 20 22 23 24 24 25 25 25 28 31 32 33 32 32 34 37 41 43 49 52 47 44 41 39 42 41 39 40 39 38 35 34 35 36
7 10 10 7 7 7 4 12 21 2 11 14 17 20 21 22 23 24 26 27 26 28 31 29 32 34 33 33 34 35 40 41 45 49 50 50 49 45 42 41 39 41 39 39 38 36 35 33 36
5 5 8 9 9 10 12 6 13 18 7 12 14 20 22 24 25 26 26 26 27 28 29 35 35 33 34 34 35 37 42 44 45 46 46 52 54 47 44 40 41 42 39 37 37 37 37 34 34
3 5 7 8 5 7 6 9 11 5 5 8 14 19 21 24 26 26 26 26 24 23 23 28 31 33 31 35 37 40 42 43 40 45 47 49 53 50 46 45 41 40 37 35 35 36 34 35 35
3 4 3 4 5 6 2 8 6 3 7 8 12 18 22 26 27 30 31 30 26 23 20 19 18 23 26 31 36 39 40 42 41 42 44 43 48 49 46 44 43 42 37 34 32 32 35 36 35
3 3 4 6 3 4 12 8 2 5 8 13 16 18 22 26 28 31 30 28 27 24 21 17 15 13 14 22 28 29 35 36 39 37 36 41 42 42 46 43 43 38 35 35 35 30 31 35 33
3 7 6 12 13 9 7 2 5 7 11 16 20 23 26 29 30 31 31 28 26 23 20 19 14 10 6 13 19 24 29 33 36 35 34 33 34 36 38 42 39 37 36 37 33 27 29 32 32
13 1 3 4 3 5 5 9 3 13 16 16 17 23 25 28 31 34 33 31 25 23 20 17 12 11 8 4 16 22 22 28 31 31 29 30 29 29 32 37 36 35 36 33 30 25 28 29 30
3 4 6 4 6 4 4 1 6 8 10 13 16 21 25 27 33 33 34 32 29 25 23 21 18 14 9 2 10 18 21 22 24 26 25 25 25 22 25 27 28 30 29 27 28 27 27 28 29
8 4 3 2 2 3 5 3 8 8 9 14 17 20 22 24 30 31 34 35 33 31 31 28 24 21 17 10 10 13 16 15 17 19 19 19 20 20 24 23 22 18 18 20 23 25 26 25 26
Wind_Direction
221 211 169 157 195 28 242 243 205 214 214 207 276 281 292 270 246 275 310 301 217 191 187 186 186 183 185 185 189 188 182 177 173 168 166 168 168 168 167 165 167 165 163 163 163 159 158 155 158
197 176 158 129 175 196 225 231 227 234 248 315 315 310 278 284 281 306 310 305 195 193 189 188 187 184 187 189 190 191 188 184 180 177 170 167 167 169 170 169 170 167 165 169 168 166 164 162 163
180 168 155 153 162 231 252 219 259 301 280 300 328 328 318 299 331 319 332 285 193 187 190 191 187 186 191 193 192 194 194 190 186 185 178 171 170 172 175 171 171 167 170 170 168 170 169 170 170
161 157 78 220 208 242 241 34 233 319 17 348 345 314 313 359 354 332 303 251 183 186 192 193 189 190 194 195 194 196 196 194 192 190 183 178 175 175 177 174 172 170 171 174 176 176 177 175 173
166 143 159 192 233 265 252 264 278 281 303 302 321 293 296 346 348 350 313 226 191 193 194 194 192 195 198 197 197 197 198 197 197 193 187 183 182 181 180 178 175 175 173 179 185 182 183 180 176
142 120 188 230 234 252 268 260 247 263 272 301 258 295 292 340 346 352 327 235 214 201 194 194 195 198 201 198 199 200 202 199 201 198 193 189 188 187 185 182 182 181 179 180 188 188 188 184 178
157 150 213 174 223 277 248 267 245 269 288 313 331 311 282 335 343 343 338 268 225 205 199 196 197 200 204 201 203 204 204 201 203 202 198 195 193 193 190 188 189 190 182 185 190 192 190 186 180
154 142 163 207 207 255 251 276 280 284 291 320 321 304 324 330 332 336 340 291 234 206 203 203 201 200 200 201 205 207 207 205 205 205 202 199 198 198 197 196 195 194 187 189 194 197 193 189 186
152 191 211 219 194 227 251 355 291 301 288 321 288 303 308 320 330 332 332 315 238 212 207 205 205 202 202 203 205 208 209 209 207 206 206 203 203 201 200 201 200 201 199 195 199 200 197 195 194
175 204 212 226 223 214 292 297 299 309 297 296 297 301 312 319 320 323 322 324 249 219 213 212 211 208 204 206 206 207 209 210 210 208 206 207 207 208 205 204 205 206 206 203 203 202 202 201 201
168 220 210 228 232 253 281 278 283 276 279 278 292 304 314 317 318 317 315 309 277 237 225 220 217 212 209 208 209 209 210 211 211 213 211 211 209 210 210 206 204 208 206 206 205 204 207 209 209
215 239 221 230 251 290 261 272 267 259 266 282 291 299 304 311 313 315 316 299 288 267 250 242 232 224 217 216 214 215 215 215 215 214 214 216 214 213 213 211 209 210 211 210 210 210 214 214 215
221 249 245 264 288 271 268 250 258 265 274 293 297 305 320 322 312 304 309 300 286 286 286 260 247 243 232 224 222 223 222 222 221 218 218 219 219 217 217 217 214 214 215 216 216 216 218 219 221
187 270 287 282 280 282 269 273 220 270 330 342 343 335 329 325 322 319 302 297 289 286 279 266 254 254 249 240 229 227 228 229 227 224 224 224 224 223 222 220 220 218 218 221 221 222 223 224 227
277 288 297 272 199 299 310 265 220 108 355 349 338 329 326 322 316 312 305 297 291 280 272 274 274 269 254 248 246 237 232 233 232 229 230 227 226 225 226 224 221 223 221 222 224 224 225 228 231
327 42 289 14 338 55 23 281 182 297 344 329 326 324 320 316 314 305 299 295 283 286 273 271 267 266 261 254 246 245 240 237 237 235 235 234 232 230 228 227 224 222 224 224 225 227 226 230 232
22 260 237 308 348 325 348 291 260 304 313 310 313 314 308 306 311 309 306 298 282 278 266 263 262 258 262 257 249 243 245 242 239 237 239 240 235 233 231 228 227 225 222 225 226 228 229 232 234
266 270 246 275 310 300 294 279 277 290 297 303 304 298 298 301 301 306 300 295 288 275 267 259 253 253 260 255 249 246 242 238 240 237 238 241 239 237 230 229 228 227 226 223 226 228 233 235 239
259 255 269 273 275 292 291 292 295 297 285 298 300 301 295 296 306 304 299 291 291 288 267 258 253 251 251 249 246 242 241 237 233 236 238 242 242 238 234 231 230 228 227 225 225 226 230 235 237
251 277 284 287 278 294 303 291 301 290 266 293 299 304 307 312 314 302 294 290 286 277 263 257 259 252 246 249 247 248 247 241 233 232 234 239 243 239 237 231 229 229 227 227 226 223 226 231 236
245 260 269 280 300 271 293 289 276 287 315 316 347 12 9 353 341 332 319 308 294 286 271 264 264 262 249 243 246 245 245 244 236 233 230 233 239 237 236 233 232 230 229 229 229 224 224 226 234
275 233 261 278 318 303 7 291 301 345 7 27 25 13 3 355 347 337 329 318 309 297 288 272 261 256 252 244 237 232 235 223 225 231 229 227 235 235 234 236 233 232 230 230 232 230 227 226 232
279 304 295 294 286 301 249 237 274 330 350 2 356 356 354 348 340 336 330 322 309 298 296 288 266 256 245 242 238 236 232 234 227 232 230 226 232 232 233 232 231 230 230 231 232 232 229 227 232
321 312 296 277 253 258 234 227 294 3 359 348 351 354 351 347 341 332 328 326 317 302 294 288 277 259 246 240 239 235 234 227 219 226 229 226 228 229 229 229 229 230 231 231 232 235 231 235 235
82 43 305 245 191 246 45 319 274 29 23 353 351 351 349 348 345 342 335 332 331 326 314 299 293 272 246 239 234 235 230 226 225 228 228 227 226 225 227 229 224 228 230 232 232 233 238 237 238
311 232 224 267 255 284 313 256 104 64 25 4 357 351 350 352 350 348 342 335 331 338 324 323 320 284 258 241 226 227 224 221 226 226 225 228 227 228 225 222 226 228 234 234 234 234 242 240 242
155 212 237 257 272 271 238 193 176 34 12 7 358 353 356 354 349 346 347 346 340 342 329 340 335 327 288 225 224 212 219 220 221 227 228 237 241 238 231 226 223 227 232 235 233 236 242 240 246
216 227 162 200 236 246 247 240 278 356 350 354 356 351 352 352 350 354 356 354 352 353 347 0 5 356 346 207 196 202 216 225 226 227 229 230 233 232 225 227 221 223 232 237 230 237 245 248 249
162 222 221 252 252 292 312 146 30 9 360 353 352 352 352 350 351 354 357 1 359 5 11 19 29 35 25 127 186 197 207 221 221 222 222 225 226 221 219 216 215 226 226 229 228 235 246 245 247
234 213 166 251 198 281 295 225 42 24 18 3 356 356 354 351 355 360 3 4 8 15 20 27 41 44 43 51 139 167 188 218 222 218 213 217 219 212 205 203 206 209 210 220 228 238 244 244 247
Height
1515 1516 1517 1519 1524 1525 1525 1514 1514 1510 1510 1507 1507 1508 1507 1503 1502 1501 1488 1486 1485 1487 1490 1494 1497 1499 1502 1505 1509 1511 1513 1515 1516 1517 1519 1521 1523 1525 1527 1529 1531 1533 1536 1538 1539 1541 1543 1545 1546
1514 1515 1518 1519 1522 1521 1512 1511 1509 1504 1504 1504 1504 1504 1502 1498 1497 1493 1488 1483 1483 1487 1490 1493 1496 1499 1503 1506 1509 1512 1514 1516 1518 1519 1519 1521 1524 1526 1527 1528 1531 1533 1535 1538 1540 1542 1543 1545 1547
1513 1515 1518 1518 1525 1517 1512 1507 1505 1505 1505 1506 1503 1501 1499 1496 1495 1492 1488 1484 1483 1487 1491 1494 1497 1500 1504 1507 1509 1512 1515 1517 1519 1520 1521 1521 1523 1526 1528 1528 1531 1532 1535 1538 1540 1542 1544 1545 1547
1512 1516 1520 1518 1517 1515 1509 1506 1507 1505 1504 1504 1504 1501 1498 1498 1495 1491 1488 1487 1486 1489 1492 1495 1498 1500 1503 1506 1509 1512 1514 1517 1519 1522 1522 1523 1524 1526 1528 1529 1531 1532 1535 1538 1540 1542 1544 1545 1547
1512 1514 1516 1519 1519 1513 1509 1507 1506 1505 1505 1502 1502 1499 1497 1494 1492 1489 1486 1487 1488 1490 1491 1495 1498 1501 1503 1506 1508 1512 1514 1516 1519 1521 1522 1523 1525 1526 1528 1530 1531 1533 1534 1538 1540 1542 1544 1545 1547
1512 1514 1516 1514 1515 1510 1505 1505 1505 1501 1501 1501 1501 1498 1495 1492 1489 1487 1486 1487 1488 1489 1492 1494 1498 1501 1503 1505 1507 1511 1514 1516 1518 1520 1522 1523 1525 1526 1528 1530 1532 1533 1534 1537 1540 1542 1544 1545 1547
1509 1512 1513 1515 1514 1508 1502 1501 1502 1499 1499 1498 1499 1497 1493 1491 1489 1488 1485 1485 1487 1489 1492 1493 1496 1499 1503 1505 1507 1510 1512 1514 1518 1520 1521 1523 1525 1527 1529 1531 1532 1533 1534 1536 1539 1541 1543 1545 1547
1509 1510 1516 1513 1509 1505 1500 1499 1499 1498 1497 1497 1496 1494 1493 1490 1489 1488 1486 1483 1485 1488 1491 1494 1495 1498 1501 1504 1507 1509 1511 1513 1517 1520 1521 1522 1525 1527 1528 1531 1532 1533 1534 1536 1538 1540 1543 1545 1546
1508 1510 1511 1505 1506 1500 1500 1499 1497 1497 1497 1496 1495 1495 1495 1492 1489 1487 1486 1483 1483 1486 1489 1492 1494 1496 1500 1502 1506 1509 1511 1512 1514 1518 1521 1522 1523 1525 1527 1529 1531 1532 1534 1536 1538 1540 1542 1544 1546
1505 1508 1505 1501 1499 1499 1499 1499 1496 1496 1494 1492 1490 1490 1491 1490 1489 1486 1486 1485 1482 1484 1486 1489 1493 1495 1497 1501 1503 1506 1509 1511 1512 1514 1517 1519 1521 1523 1525 1528 1530 1532 1534 1536 1537 1539 1541 1543 1545
1502 1500 1500 1498 1498 1499 1498 1496 1495 1490 1489 1491 1488 1484 1486 1487 1486 1484 1484 1484 1482 1482 1484 1485 1489 1491 1495 1497 1500 1503 1505 1507 1510 1513 1515 1517 1520 1521 1523 1526 1528 1530 1533 1535 1536 1538 1539 1541 1543
1500 1497 1497 1495 1496 1498 1496 1494 1489 1488 1484 1484 1484 1484 1483 1484 1484 1482 1480 1481 1481 1481 1482 1484 1487 1489 1490 1494 1497 1500 1502 1504 1506 1508 1512 1514 1516 1519 1520 1522 1524 1527 1529 1532 1533 1535 1538 1539 1542
1497 1496 1495 1492 1492 1493 1491 1489 1487 1483 1481 1481 1481 1481 1481 1480 1479 1478 1476 1478 1479 1479 1480 1480 1483 1487 1488 1489 1493 1495 1497 1500 1502 1505 1507 1509 1512 1514 1517 1519 1521 1523 1526 1529 1531 1533 1536 1538 1540
1494 1494 1491 1488 1486 1486 1486 1484 1485 1478 1479 1478 1479 1478 1477 1476 1476 1475 1474 1474 1475 1476 1477 1477 1478 1479 1481 1484 1486 1489 1492 1495 1497 1500 1503 1505 1508 1510 1512 1515 1517 1520 1522 1525 1529 1531 1533 1536 1537
1492 1493 1490 1484 1485 1481 1482 1480 1478 1477 1477 1477 1477 1475 1473 1472 1471 1471 1472 1470 1471 1471 1471 1471 1473 1474 1474 1477 1482 1484 1486 1489 1490 1492 1497 1500 1502 1505 1507 1509 1512 1515 1518 1521 1526 1528 1531 1533 1534
1492 1494 1489 1485 1484 1482 1481 1474 1478 1477 1476 1476 1475 1474 1469 1465 1466 1465 1466 1465 1464 1465 1465 1466 1466 1467 1467 1469 1474 1478 1480 1483 1485 1488 1490 1494 1497 1499 1501 1504 1507 1510 1513 1517 1521 1524 1527 1529 1531
1494 1486 1493 1488 1485 1485 1483 1475 1477 1475 1476 1474 1471 1468 1463 1460 1460 1460 1458 1459 1458 1457 1457 1457 1459 1459 1461 1463 1466 1469 1472 1474 1478 1481 1484 1486 1490 1493 1495 1498 1501 1505 1508 1511 1515 1519 1522 1525 1526
1486 1490 1494 1490 1486 1482 1477 1464 1471 1475 1472 1468 1467 1461 1456 1451 1452 1452 1451 1451 1451 1449 1449 1449 1450 1451 1453 1454 1456 1458 1462 1464 1470 1473 1475 1479 1483 1485 1489 1492 1495 1499 1503 1505 1508 1513 1517 1520 1523
1490 1490 1489 1488 1484 1484 1475 1457 1459 1467 1467 1463 1459 1456 1451 1446 1449 1446 1445 1444 1444 1442 1441 1440 1440 1441 1444 1444 1443 1446 1449 1456 1460 1464 1468 1471 1476 1479 1483 1486 1489 1492 1496 1499 1502 1507 1511 1515 1519
1487 1487 1486 1484 1482 1480 1471 1450 1446 1459 1461 1457 1454 1452 1447 1440 1441 1440 1437 1436 1435 1433 1432 1432 1431 1432 1432 1435 1435 1437 1441 1445 1451 1455 1459 1464 1468 1472 1474 1476 1479 1484 1489 1492 1496 1499 1503 1510 1513
1486 1485 1484 1482 1480 1478 1472 1446 1443 1448 1451 1452 1453 1453 1448 1446 1442 1438 1434 1431 1428 1426 1424 1422 1422 1423 1423 1425 1429 1430 1433 1436 1438 1441 1448 1454 1458 1462 1466 1470 1474 1477 1481 1484 1488 1492 1495 1501 1506
1483 1480 1478 1480 1480 1474 1474 1459 1436 1442 1446 1452 1454 1453 1451 1446 1443 1439 1434 1428 1423 1419 1416 1414 1412 1413 1414 1416 1417 1419 1421 1421 1423 1430 1437 1443 1448 1453 1458 1463 1467 1472 1474 1478 1482 1486 1489 1494 1498
1478 1479 1479 1477 1476 1477 1469 1475 1421 1435 1444 1454 1454 1451 1448 1444 1439 1436 1432 1427 1422 1416 1409 1405 1403 1402 1403 1405 1407 1409 1412 1412 1419 1422 1427 1433 1438 1445 1449 1455 1459 1464 1467 1471 1475 1478 1483 1486 1491
1478 1478 1475 1474 1476 1475 1462 1463 1430 1446 1456 1457 1455 1452 1449 1446 1438 1432 1429 1424 1418 1412 1405 1400 1396 1392 1391 1393 1396 1398 1401 1405 1409 1411 1415 1421 1428 1434 1440 1447 1451 1456 1460 1465 1467 1471 1476 1480 1485
1478 1477 1477 1474 1475 1461 1458 1456 1442 1456 1458 1460 1456 1453 1450 1443 1437 1430 1424 1418 1413 1406 1400 1395 1390 1384 1381 1381 1384 1388 1392 1399 1401 1403 1406 1412 1418 1424 1432 1437 1443 1448 1453 1457 1462 1465 1470 1474 1478
1478 1481 1478 1476 1461 1454 1454 1448 1442 1458 1460 1459 1457 1455 1451 1444 1436 1429 1425 1419 1411 1402 1396 1390 1384 1378 1375 1374 1374 1379 1384 1390 1394 1397 1401 1406 1411 1417 1422 1430 1437 1443 1450 1451 1455 1459 1463 1466 1471
1480 1479 1473 1473 1468 1469 1451 1447 1458 1458 1459 1458 1458 1455 1449 1443 1437 1431 1425 1417 1409 1401 1393 1385 1379 1374 1370 1368 1369 1373 1379 1383 1386 1391 1397 1401 1407 1412 1417 1423 1433 1438 1442 1445 1450 1453 1456 1459 1463
1471 1471 1475 1473 1474 1462 1436 1435 1437 1460 1460 1460 1459 1458 1452 1446 1439 1431 1423 1415 1408 1400 1391 1383 1375 1369 1366 1364 1365 1369 1374 1378 1383 1388 1391 1396 1400 1406 1411 1417 1424 1431 1435 1438 1443 1447 1449 1452 1455
1473 1472 1469 1467 1462 1450 1439 1446 1467 1470 1470 1468 1464 1461 1454 1449 1440 1432 1424 1416 1408 1399 1389 1380 1373 1367 1363 1361 1363 1366 1371 1376 1380 1382 1387 1391 1395 1399 1406 1412 1418 1423 1427 1432 1436 1440 1443 1445 1449
1467 1465 1470 1471 1456 1459 1455 1450 1473 1475 1473 1471 1468 1464 1458 1451 1443 1435 1423 1413 1404 1393 1386 1379 1367 1364 1362 1361 1362 1366 1369 1374 1377 1380 1384 1389 1393 1397 1405 1409 1414 1419 1422 1426 1430 1433 1436 1439 1442